KSU-CUBESAT

Last updated on Thu Apr 22 2021 00:02:03 GMT+0000 (Coordinated Universal Time)

1 47954U 21022Y 21111.41996350 .00001331 00000-0 95884-4 0 9995 2 47954 97.5634 14.7145 0022477 142.0332 218.2485 15.05683195 4191

Satellite not in orbit

KSU-CUBESAT